Location: Newark
(55.7717°N, 25.7294°E)
Time: 16:53:55
(UTC+00:00)

X-37B - Visible Passes

Search period start: 30 September 2020 00:00
Search period end: 10 October 2020 00:00
Orbit: 386 x 387 km, 45.0° (Epoch: 18 September)

Date Brightness Start Highest point End Pass type
(mag) Time Alt. Az. Time Alt. Az. Time Alt. Az.
07 Oct 3.1 17:35:19 10° SSW 17:36:16 12° S 17:36:16 12° S visible
08 Oct 3.1 16:37:23 10° S 16:38:27 11° S 16:39:31 10° SSE visible
09 Oct 3.0 17:14:28 10° SSW 17:15:53 12° S 17:16:30 12° S visible
